www.pogodaiklimat.ru

Погода и климат >> Архив погоды >> Италия >> Джела


ПОГОДА в Джеле

  • Прогноз погоды в Джеле
  • Монитор погоды в Джеле

АРХИВ ПОГОДЫ в Джеле

Время (UTC), дата Ветер
(напр.,м/с)
 
Видим.   Явления Облачность Т
(С)
Тd
(С)
f
(%)
Тe
(С)
Тes
(С)
Комфортность P
(гПа)
Po
(гПа)
Тmin
(С)
Tmax
(С)
R
(мм)
R24
(мм)
S
(см)
09 12.08 ЮЗ 3 10 км ясно +29.4 +19.7 56 +35 +49 очень
душно
1011.5 1003.7
12 12.08 З 5 10 км ясно +30.4 +22.8 64 +40 +49 очень
душно
1010.8 1003.0
15 12.08 ЮЗ 3 10 км ясно +30.2 +23.4 67 +41 +47 опасность
перегрева
1009.8 1002.0
18 12.08 нст 2 10 км ясно +28.8 +23.3 72 +39 +39 очень
душно
1009.6 1001.8 +30.8
06 13.08 нст 1 20 км ясно +27.8 +18.8 58 +33 +36 очень
душно
1009.7 1001.8 +26.4
09 13.08 ЮЗ 3 20 км ясно +29.4 +21.4 62 +37 +49 очень
душно
1009.8 1002.0
12 13.08 З 7 10 км ясно +31.0 +22.0 59 +40 +45 очень
душно
1009.2 1001.4
15 13.08 З 5 10 км 1/1 750 м
[Cu med, cong]
+30.4 +23.6 67 +41 +44 опасность
перегрева
1008.3 1000.6
18 13.08 нст 3 10 км ясно +29.0 +23.9 74 +40 +40 очень
душно
1008.3 1000.5 +31.2
06 14.08 В 2 10 км 1/0
[Ci fib]
+29.4 +18.2 51 +34 +37 очень
душно
1009.4 1001.6 +27.2
09 14.08 нст 3 10 км ясно +31.4 +20.4 52 +38 +50 очень
душно
1009.8 1002.1
12 14.08 З 10 10 км 1/1 600 м
[Cu hum]
+30.2 +22.6 64 +40 +41 очень
душно
1009.4 1001.6
15 14.08 З 9 10 км 3/3 600 м
[Cu med, cong]
+29.2 +21.2 62 +37 +37 очень
душно
1008.7 1000.9
18 14.08 С 6 10 км ясно +30.6 +15.5 40 +33 +33 душно 1009.2 1001.4 +32.0
06 15.08 СЗ 3 10 км 3/0
[Cs]
+25.6 +16.5 57 +29 +31 душно 1012.6 1004.6 +24.8
09 15.08 нст 2 20 км ясно +30.2 +18.3 49 +35 +49 очень
душно
1012.4 1004.5
12 15.08 ЮЗ 5 20 км 1/1 660 м
[Sc diur, vesp]
+28.4 +21.4 66 +36 +44 очень
душно
1012.0 1004.1
15 15.08 З 8 10 км 1/1 660 м
[Sc]
+29.6 +20.7 59 +37 +38 очень
душно
1010.4 1002.6
18 15.08 С 5 10 км ясно +31.4 +13.7 34 +33 +33 жарко 1011.6 1003.8 +33.4
06 16.08 нст 1 20 км ясно +25.8 +18.0 62 +30 +33 душно 1014.3 1006.4 +25.0
09 16.08 ЮЗ 3 20 км ясно +27.4 +18.4 58 +32 +44 очень
душно
1014.7 1006.8
12 16.08 нст 6 20 км ясно +27.2 +20.5 67 +34 +41 очень
душно
1014.2 1006.3
15 16.08 З 5 20 км 1/1 750 м
[Cu med, cong]
+27.0 +22.2 75 +35 +38 очень
душно
1012.9 1005.0
18 16.08 З 7 10 км ясно +26.4 +22.0 77 +34 +34 очень
душно
1012.5 1004.6 +28.0
06 17.08 СВ 3 20 км ясно +25.2 +18.9 68 +30 +32 душно 1015.3 1007.3 +24.4
09 17.08 нст 3 20 км 1/1 600 м
[Cu hum]
+27.4 +19.0 60 +33 +44 очень
душно
1015.8 1007.9
12 17.08 ЮЗ 5 20 км 1/1 600 м
[Cu hum]
+27.0 +20.3 67 +33 +41 очень
душно
1015.2 1007.3
15 17.08 ЮЗ 5 20 км 1/1 570 м
[Cu hum]
+27.0 +21.5 72 +34 +38 очень
душно
1014.7 1006.8
18 17.08 Ю 3 20 км 1/1 700 м
[Cu med, cong]
+26.0 +20.6 72 +32 +32 очень
душно
1014.6 1006.7 +27.6
06 18.08 В 2 10 км ясно +25.2 +18.6 67 +30 +32 душно 1015.3 1007.4 +24.6
09 18.08 нст 3 10 км ясно +27.0 +19.6 64 +33 +45 очень
душно
1016.0 1008.1
12 18.08 нст 4 10 км ясно +27.4 +21.0 68 +34 +47 очень
душно
1015.9 1008.0
15 18.08 ЮЗ 3 10 км ясно +27.0 +21.1 70 +34 +39 очень
душно
1014.9 1007.0
18 18.08 ЮЗ 3 10 км 1/0 2000 м
[Ac trans]
+26.2 +21.2 74 +33 +33 очень
душно
1015.0 1007.1 +27.6

 

Местоположение метеостанции Джела (Италия): широта 37.08 долгота 14.22 высота над уровнем моря 65 м.

В архиве по умолчанию представлена погода в Джеле за последнюю неделю. Архивные данные за месяц целиком и за предыдущие месяцы, начиная с января 2011 года, Вы можете получить, выбрав интересующий диапазон дат из раскрывающегося списка и нажав кнопку "Ввод!".


*Определитесь, кто Вы:
робот инопланетянин человек

Внимание! Время в таблицах - всемирное. Для получения местного времени необходимо прибавить поправку, которая равна 1 ч.

Смотрите также архив погоды в соседних городах и на ближайших метеорологических станциях:

Погода в Энне (Италия) (55 км)
Погода в Катании (Италия) (71 км)
Погода в Аэропорту Фонтанаросса (Италия) (85 км)
Погода в Коццо Спадаро (Италия) (92 км)
Погода в Сиракузах (Италия) (94 км)
Погода в Прицци (Италия) (100 км)
Погода в Джибилманне (Италия) (102 км)
Погода на Мальте (Мальта) (139 км)
Погода в Мессине (Италия) (171 км)
Погода на Острове Салина (Италия) (176 км)

Пояснения к столбцам:

Ветер - указаны скорость ветра в м/с - средняя за 10 мин, порывы в срок и между сроками (в фигурных скобках) и направление, откуда дует ветер: С - северный, СВ - северо-восточный, В - восточный, ЮВ - юго-восточный, Ю - южный, ЮЗ - юго-западный, З - западный, СЗ - северо-западный.
Видимость - горизонтальная дальность видимости в метрах или километрах. При видимости от 1 до 10 км при отсутствии осадков обычно наблюдается дымка, при ухудшении видимости до 1 км и менее - туман. В сухую погоду видимость может ухудшаться дымом, пылью или мглою.
Явления - указаны атмосферные явления, наблюдавшиеся в срок или в последний час перед сроком; фигурными скобками обозначены явления, наблюдавшиеся между сроками (за 1-3 часа до срока); квадратными скобками обозначены град или гололедные отложения с указанием их диаметра в мм.
Облачность - указаны через наклонную черту общая и нижняя облачность в баллах и высота нижней границы облаков в метрах; квадратными скобками обозначены формы облаков: Ci - перистые, Cs - перисто-слоистые, Cc - перисто-кучевые, Ac - высококучевые, As - высокослоистые, Sc - слоисто-кучевые, Ns - слоисто-дождевые, Cu - кучевые, Cb - кучево-дождевые. Подробнее классификацию облаков см. в Атласе облаков (PDF).
T - Температура воздуха - температура, измеренная на высоте 2 м над землей.
Td - Температура точки росы - температура, при понижении до которой содержащийся в воздухе водяной пар достигнет насыщения.
f - Относительная влажность воздуха - влажноcть воздуха, измеренная на высоте 2 м над землей.
Te - Эффективная температура - температура, которую ощущает одетый по сезону человек в тени. Характеристика душности погоды. При расчете учитывается влияние влажности воздуха и скорости ветра на теплоощущения человека.
Tes - Эффективная температура на солнце - температура, которую ощущает человек, с поправкой на солнечный нагрев. Характеристика знойности погоды. Зависит от высоты солнца над горизонтом, облачности и скорости ветра. Ночью, в пасмурную погоду, а также при ветре 12 м/с и более поправка равна нулю.
P - Атмосферное давление - приведенное к уровню моря атмосферное давление.
Po - Атмосферное давление - измеренное на уровне метеостанции атмосферное давление.
Tmin - Минимальная температура - минимум температуры воздуха на высоте 2 м над землей.
Tmax - Максимальная температура - максимум температуры воздуха на высоте 2 м над землей.
R - Количество осадков - Количество выпавших осадков за период времени, мм. При наведении курсора мыши на число - период времени, за который выпало указанное количество осадков.
R24 - Количество осадков - Количество выпавших осадков за 24 часа, мм.
S - Снежный покров - Высота снежного покрова, см. При наведении курсора мыши на число - состояние снежного покрова и степень покрытия местности в баллах.